Simultaneous Nadir Overpasses (SNOs) Predictions

Prediction of SNOs between GOES-15 and NPP Satellite Orbit:

Table of predicted SNOs for the next 14.0 days since TLE Epoch: 11/15/2013
Index Date Time (GOES-15) GOES-15 Lat,Lon NPP Lat,Lon Distance(km) Time Diff (sec)
1 11/17/2013 22:28:58 -0.03,-135.36 -0.18,-135.93 65.74 80
2 11/18/2013 22:12:54 -0.04,-135.37 0.85,-131.40 453.13 80
3 11/20/2013 10:32:02 0.01,-135.46 0.30,-136.67 138.27 80
4 11/21/2013 10:15:57 0.03,-135.47 -0.73,-132.14 380.30 80
5 11/22/2013 22:35:14 0.00,-135.42 -0.43,-137.44 229.04 80
6 11/23/2013 22:19:08 -0.01,-135.43 0.54,-132.89 289.15 80
7 11/25/2013 10:38:17 -0.02,-135.51 0.60,-138.16 303.31 80
8 11/26/2013 10:22:12 -0.01,-135.51 -0.44,-133.63 214.71 80
9 11/27/2013 22:41:27 0.04,-135.46 -0.77,-138.92 395.23 80
10 11/28/2013 22:25:23 0.02,-135.46 0.27,-134.39 122.27 80




NCC Satellite Simultaneous Nadir Overpasses (SNOs) Prediction Service
